Location: Chimay
(50.0486°N, 4.3171°E)
Time: 03:08:02
(UTC+00:00)

Okean 1-7 - Pass Details

Date: 08 August 2020
Orbit: 590 x 619 km, 82.5° (Epoch: 25 September)

Event Time Altitude Azimuth Distance (km) Brightness Sun altitude
Rises 21:00:09 0° 355° (N) 2,887 7.4 -14.5°
Reaches altitude 10° 21:02:31 10° 4° (N) 1,972 6.3 -14.7°
Maximum altitude 21:06:35 37° 73° (ENE) 947 3.8 -15.2°
Enters shadow 21:08:22 26° 120° (ESE) 1,211 4.0 -15.3°
